Location: ?????????
(41.2286°N, 23.0068°E)
Time: 09:11:23
(UTC+00:00)

COSMOS 2428 - Pass Details

Date: 08 November 2025
Orbit: 847 x 852 km, 70.9° (Epoch: 05 December)

Event Time Altitude Azimuth Distance (km) Brightness Sun altitude
Exits shadow 02:59:18 27° 203° (SSW) 1,564 3.9 -24.4°
Maximum altitude 03:02:31 89° 286° (WNW) 853 2.6 -23.8°
Drops below altitude 10° 03:08:13 10° 24° (NNE) 2,478 5.4 -22.7°
Sets 03:10:41 0° 24° (NNE) 3,417 6.1 -22.2°
